weather.gov     
National Weather Service

Regional Weather Roundup
NWS Homepage
This page is being discontinued on March 12, 2014.
The same data is available at this site. Please update your bookmarks.
Thank you, and we apologize for the inconvenience.
Please send an email to SR-SRH.Webmaster@noaa.gov with any concerns.


Current Version
Previous Version:    01  02  03  04  05  06  07  08  09  10  11  12  13  14  15  16  17  18  19  20  21  22  23  24  25  26  27  28  29  30  
   31  32  33  34  35  36  37  38  39  40  41  42  43  44  45  46  47  48  49  50  51  52  53  54  
[Printable]
787
ASUS44 KMEG 220510
RWRTN
TENNESSEE HOURLY STATE WEATHER ROUNDUP
NATIONAL WEATHER SERVICE MEMPHIS TN
1200 AM CDT FRI AUG 22 2014

TNZ002-004-019-021-049-052-054-088>092-220600-
WEST TENNESSEE

CITY           SKY/WX    TMP DP  RH WIND       PRES   REMARKS
MEMPHIS INTL   CLEAR     83  74  74 SW8       30.05S
NWS MEMPHIS      N/A     81 N/A N/A MISG        N/A
JACKSON        CLEAR     78  73  84 S3        30.06S
DYERSBURG      CLEAR     79  66  65 CALM      30.06R
UNION CITY     CLEAR     77  73  88 SW3       30.05R
PARIS          CLEAR     75  72  88 SW5       30.07R
HUNTINGDON     CLEAR     76  72  87 CALM      30.06S
LEXINGTON      CLEAR     75  73  94 CALM      30.07S
SAVANNAH       CLEAR     73  73 100 CALM      30.08F
$$

TNZ008-025-027-028-033-062-065-066-220600-
NORTH MIDDLE TENNESSEE

CITY           SKY/WX    TMP DP  RH WIND       PRES   REMARKS
NASHVILLE      CLEAR     78  73  84 CALM      30.09S
DICKSON        CLEAR     77  72  83 SW7       30.09S
PORTLAND       PTCLDY    79  72  78 SW5       30.09R
CLARKSVILLE    CLEAR     77  73  87 S6        30.07R
LEBANON        CLEAR     78  71  79 SW3       30.08R
SMYRNA         CLEAR     78  73  84 S3        30.10S
MURFREESBORO   CLEAR     78  71  79 S3        30.09S
COOKEVILLE     CLEAR     72  72 100 CALM      30.12S
LIVINGSTON     CLEAR     75  69  81 SW3       30.14R
GALLATIN       CLEAR     76  74  93 CALM      30.10R
CROSSVILLE     CLEAR     74  68  81 CALM      30.19R
$$

TNZ061-075-076-078-094-096-097-220600-
SOUTH MIDDLE TENNESSEE

CITY           SKY/WX    TMP DP  RH WIND       PRES   REMARKS
LEWISBURG      CLEAR     74  70  87 CALM      30.11R
FAYETTEVILLE   CLEAR     75  70  83 CALM      30.12F
TULLAHOMA      CLEAR     73  70  88 CALM      30.15R
WINCHESTER     CLEAR     75  72  88 CALM      30.14R
MCMINNVILLE    CLEAR     73  73 100 CALM      30.13F
COLUMBIA       CLEAR     75  75 100 CALM      30.09S
SHELBYVILLE    CLEAR     73  73 100 CALM      30.12S
$$

TNZ017-018-042-046-047-220600-
NORTHEAST TENNESSEE

CITY           SKY/WX    TMP DP  RH WIND       PRES   REMARKS
TRI CITIES     MOCLDY    72  70  93 CALM      30.15R FOG
ELIZABETHTON   CLEAR     70  70 100 CALM      30.16S
$$

TNZ012-013-036-069-073-074-220600-
CENTRAL EAST TENNESSEE

CITY           SKY/WX    TMP DP  RH WIND       PRES   REMARKS
KNOXVILLE      PTCLDY    76  70  82 CALM      30.12R
OAK RIDGE      CLEAR     76  73  91 CALM      30.14R
GATLINBURG     CLEAR     72  70  94 CALM      30.13R
MORRISTOWN     CLEAR     73  73 100 CALM      30.15S
$$

TNZ083-085-099-220600-
SOUTHEAST TENNESSEE

CITY           SKY/WX    TMP DP  RH WIND       PRES   REMARKS
CHATTANOOGA    CLEAR     78  73  84 CALM      30.12R
$$

SKY/WX REPORTED AS FAIR MEANS FEW OR NO CLOUDS BELOW
12 THOUSAND FEET.





U.S. Dept. of Commerce
NOAA National Weather Service
1325 East West Highway
Silver Spring, MD 20910
E-mail: w-nws.webmaster@noaa.gov
Page last modified: May 16, 2007
NATIONAL WEATHER SERVICE: for Safety, for Work, for Fun - FOR LIFE